Retour au catalogue

STARLINK-4514

ActifCommunicationsVLEO
NORAD 53551·PAYLOAD·🇺🇸 United States

Lancé Aug 19, 2022 depuis Cape Canaveral Space Force Station

Loading…

Prochains Passages (prochaines 24 heures)

TLE

FraisSource: CelesTrak SupGP

Époque: Sep 14, 2026, 21:06 UTC

1 53551C 22101AA  26257.87965278  .00030681  00000+0  90658-3 0  2574
2 53551  53.1568 283.9754 0001122  93.4089 200.6356 15.34371318    15

Suivez STARLINK-4514 en temps réel avec AllMySat

Download on the App Store